EZY71LY EGKK-LFRS

Flight info

Callsign EZY71LY
Flight time 0h 58m
Altitude 27000
Route IMVUR N63 SAM M195 IBNID/N0406F290 M195 MARUK N621 LELNA DCT DOMOK UT260 UPALO UN862 GODAN
Aircraft A320/M-SDE2E3FGHIJ1RWXYZ/LB1

Departure

Time 2026-05-04 12:02
Airport London Gatwick Airport (EGKK)

Arrival

Time 2026-05-04 13:01
Airport Nantes Atlantique Airport (LFRS)
Time Latitude Longitude Altitude Speed Heading
2026-05-04 11:26 51.15591 -0.17621 204 ft 0 kts 347°
2026-05-04 11:44 51.15590 -0.17620 204 ft 1 kts 347°
2026-05-04 11:45 51.15567 -0.17612 204 ft 4 kts 347°
2026-05-04 11:45 51.15545 -0.17605 204 ft 4 kts 343°
2026-05-04 11:45 51.15529 -0.17587 204 ft 4 kts 271°
2026-05-04 11:45 51.15533 -0.17549 204 ft 3 kts 257°
2026-05-04 11:46 51.15534 -0.17543 204 ft 0 kts 257°
2026-05-04 11:51 51.15525 -0.17606 204 ft 12 kts 257°
2026-05-04 11:51 51.15506 -0.17744 204 ft 13 kts 258°
2026-05-04 11:51 51.15488 -0.17878 204 ft 13 kts 258°
2026-05-04 11:52 51.15469 -0.18016 204 ft 13 kts 258°
2026-05-04 11:52 51.15453 -0.18131 204 ft 4 kts 257°
2026-05-04 11:52 51.15443 -0.18203 204 ft 10 kts 257°
2026-05-04 11:52 51.15403 -0.18280 204 ft 9 kts 190°
2026-05-04 11:53 51.15347 -0.18261 204 ft 8 kts 165°
2026-05-04 11:53 51.15299 -0.18241 204 ft 6 kts 167°
2026-05-04 11:53 51.15253 -0.18226 204 ft 11 kts 169°
2026-05-04 11:53 51.15188 -0.18264 204 ft 11 kts 252°
2026-05-04 11:55 51.14944 -0.19413 206 ft 19 kts 257°
2026-05-04 11:55 51.14911 -0.19652 206 ft 23 kts 257°
2026-05-04 11:56 51.14875 -0.19910 204 ft 25 kts 257°
2026-05-04 11:56 51.14836 -0.20195 202 ft 28 kts 258°
2026-05-04 11:56 51.14802 -0.20445 203 ft 21 kts 257°
2026-05-04 11:56 51.14776 -0.20654 203 ft 16 kts 258°
2026-05-04 11:57 51.14764 -0.20729 203 ft 0 kts 255°
2026-05-04 11:57 51.14755 -0.20785 203 ft 11 kts 256°
2026-05-04 11:57 51.14736 -0.20916 204 ft 16 kts 258°
2026-05-04 11:57 51.14708 -0.21121 204 ft 20 kts 258°
2026-05-04 11:58 51.14671 -0.21320 204 ft 14 kts 218°
2026-05-04 11:58 51.14610 -0.21323 204 ft 0 kts 167°
2026-05-04 11:59 51.14608 -0.21323 204 ft 3 kts 167°
2026-05-04 11:59 51.14546 -0.21277 202 ft 17 kts 141°
2026-05-04 12:00 51.14526 -0.21126 203 ft 4 kts 77°
2026-05-04 12:00 51.14526 -0.21123 203 ft 0 kts 77°
2026-05-04 12:01 51.14543 -0.21010 204 ft 40 kts 77°
2026-05-04 12:01 51.14656 -0.20183 205 ft 109 kts 77°
2026-05-04 12:02 51.16251 -0.08522 2687 ft 231 kts 78°
2026-05-04 12:03 51.16868 -0.06149 3484 ft 237 kts 49°
2026-05-04 12:03 51.18264 -0.04799 4284 ft 241 kts
2026-05-04 12:03 51.19937 -0.04825 5100 ft 243 kts 350°
2026-05-04 12:03 51.21533 -0.05679 5879 ft 245 kts 322°
2026-05-04 12:04 51.22551 -0.07820 6613 ft 249 kts 290°
2026-05-04 12:04 51.22725 -0.10655 6984 ft 271 kts 261°
2026-05-04 12:04 51.22390 -0.13683 7574 ft 282 kts 259°
2026-05-04 12:04 51.22017 -0.16782 8294 ft 287 kts 258°
2026-05-04 12:05 51.21636 -0.19922 9038 ft 290 kts 258°
2026-05-04 12:05 51.21252 -0.23102 9785 ft 294 kts 259°
2026-05-04 12:05 51.20868 -0.26327 10500 ft 298 kts 259°
2026-05-04 12:05 51.20483 -0.29595 11186 ft 302 kts 259°
2026-05-04 12:06 51.20098 -0.32906 11847 ft 305 kts 259°
2026-05-04 12:06 51.19703 -0.36251 12480 ft 309 kts 258°
2026-05-04 12:06 51.19276 -0.39626 13093 ft 312 kts 258°
2026-05-04 12:06 51.18827 -0.43024 13677 ft 316 kts 258°
2026-05-04 12:07 51.18367 -0.46469 14243 ft 319 kts 258°
2026-05-04 12:07 51.17904 -0.49945 14788 ft 322 kts 258°
2026-05-04 12:07 51.17383 -0.53432 15310 ft 325 kts 251°
2026-05-04 12:07 51.16536 -0.56852 15491 ft 340 kts 247°
2026-05-04 12:08 51.15595 -0.60399 15620 ft 354 kts 246°
2026-05-04 12:08 51.14609 -0.64070 15784 ft 366 kts 246°
2026-05-04 12:08 51.13609 -0.67777 16131 ft 371 kts 246°
2026-05-04 12:08 51.12587 -0.71572 16540 ft 374 kts 246°
2026-05-04 12:09 51.11561 -0.75394 16940 ft 377 kts 246°
2026-05-04 12:09 51.10529 -0.79248 17327 ft 380 kts 246°
2026-05-04 12:09 51.09490 -0.83126 17699 ft 382 kts 246°
2026-05-04 12:09 51.08440 -0.87032 18054 ft 385 kts 246°
2026-05-04 12:10 51.07382 -0.90956 18395 ft 387 kts 246°
2026-05-04 12:10 51.06317 -0.94897 18725 ft 390 kts 246°
2026-05-04 12:10 51.05244 -0.98865 19048 ft 392 kts 246°
2026-05-04 12:10 51.04162 -1.02858 19358 ft 394 kts 246°
2026-05-04 12:11 51.03073 -1.06868 19656 ft 396 kts 246°
2026-05-04 12:11 51.01976 -1.10898 19937 ft 398 kts 246°
2026-05-04 12:11 51.00872 -1.14940 20208 ft 400 kts 246°
2026-05-04 12:11 50.99761 -1.19004 20464 ft 402 kts 246°
2026-05-04 12:12 50.98646 -1.23085 20712 ft 404 kts 246°
2026-05-04 12:12 50.97526 -1.27186 20950 ft 406 kts 246°
2026-05-04 12:12 50.96747 -1.29888 21093 ft 407 kts 242°
2026-05-04 12:12 50.95198 -1.33642 21307 ft 408 kts 230°
2026-05-04 12:13 50.93200 -1.36830 21506 ft 410 kts 219°
2026-05-04 12:14 50.76355 -1.54427 22722 ft 419 kts 213°
2026-05-04 12:15 50.73917 -1.56943 22874 ft 420 kts 213°
2026-05-04 12:15 50.71465 -1.59470 23024 ft 421 kts 213°
2026-05-04 12:15 50.69006 -1.62001 23167 ft 422 kts 213°
2026-05-04 12:15 50.66545 -1.64532 23304 ft 423 kts 213°
2026-05-04 12:16 50.64074 -1.67075 23438 ft 424 kts 213°
2026-05-04 12:16 50.61599 -1.69620 23568 ft 425 kts 213°
2026-05-04 12:16 50.59118 -1.72170 23694 ft 426 kts 213°
2026-05-04 12:16 50.56666 -1.74685 23818 ft 427 kts 213°
2026-05-04 12:17 50.54176 -1.77236 23945 ft 427 kts 213°
2026-05-04 12:17 50.51682 -1.79787 24070 ft 428 kts 213°
2026-05-04 12:17 50.49185 -1.82336 24195 ft 429 kts 213°
2026-05-04 12:17 50.46688 -1.84885 24322 ft 429 kts 213°
2026-05-04 12:18 50.44186 -1.87439 24448 ft 429 kts 213°
2026-05-04 12:18 50.41680 -1.89989 24572 ft 430 kts 213°
2026-05-04 12:18 50.39169 -1.92538 24697 ft 430 kts 213°
2026-05-04 12:18 50.36660 -1.95079 24822 ft 430 kts 213°
2026-05-04 12:19 50.34148 -1.97622 24947 ft 430 kts 213°
2026-05-04 12:19 50.31636 -2.00160 25072 ft 430 kts 213°
2026-05-04 12:19 50.29124 -2.02694 25196 ft 430 kts 213°
2026-05-04 12:19 50.26570 -2.05111 25320 ft 429 kts 206°
2026-05-04 12:20 50.23802 -2.06825 25445 ft 429 kts 196°
2026-05-04 12:20 50.20875 -2.07712 25570 ft 428 kts 186°
2026-05-04 12:20 50.17909 -2.08091 25694 ft 428 kts 185°
2026-05-04 12:20 50.14944 -2.08471 25819 ft 427 kts 185°
2026-05-04 12:21 50.11977 -2.08859 25944 ft 427 kts 185°
2026-05-04 12:21 50.09024 -2.09246 26068 ft 426 kts 185°
2026-05-04 12:21 50.06068 -2.09633 26193 ft 426 kts 185°
2026-05-04 12:21 50.03110 -2.10019 26561 ft 425 kts 185°
2026-05-04 12:22 50.00170 -2.10403 27102 ft 423 kts 185°
2026-05-04 12:22 49.97237 -2.10741 27515 ft 424 kts 183°
2026-05-04 12:22 49.94316 -2.10882 27877 ft 426 kts 181°
2026-05-04 12:22 49.91304 -2.10865 28234 ft 429 kts 179°
2026-05-04 12:23 49.88312 -2.10764 28573 ft 431 kts 179°
2026-05-04 12:23 49.85348 -2.10651 28891 ft 433 kts 179°
2026-05-04 12:23 49.82337 -2.10560 28992 ft 429 kts 179°
2026-05-04 12:23 49.79411 -2.10505 29009 ft 412 kts 180°
2026-05-04 12:24 49.73724 -2.10435 29009 ft 403 kts 176°
2026-05-04 12:24 49.68288 -2.08691 29010 ft 402 kts 164°
2026-05-04 12:25 49.62909 -2.06314 29010 ft 402 kts 164°
2026-05-04 12:25 49.57523 -2.03939 29009 ft 402 kts 164°
2026-05-04 12:26 49.52137 -2.01577 29009 ft 402 kts 164°
2026-05-04 12:26 49.46753 -1.99226 29007 ft 402 kts 164°
2026-05-04 12:27 49.41367 -1.96882 29007 ft 402 kts 164°
2026-05-04 12:27 49.35984 -1.94545 29005 ft 402 kts 164°
2026-05-04 12:28 49.30607 -1.92206 29009 ft 402 kts 164°
2026-05-04 12:28 49.25225 -1.89872 29001 ft 402 kts 164°
2026-05-04 12:29 49.19850 -1.87545 29003 ft 402 kts 164°
2026-05-04 12:29 49.14506 -1.85245 28998 ft 401 kts 165°
2026-05-04 12:30 49.09136 -1.82940 28996 ft 401 kts 165°
2026-05-04 12:30 49.03757 -1.80634 28997 ft 401 kts 165°
2026-05-04 12:31 48.98383 -1.78332 28998 ft 401 kts 164°
2026-05-04 12:31 48.93005 -1.76033 29000 ft 401 kts 165°
2026-05-04 12:32 48.84698 -1.75112 28996 ft 400 kts 180°
2026-05-04 12:33 48.79126 -1.75048 28996 ft 401 kts 180°
2026-05-04 12:33 48.73549 -1.74984 28997 ft 401 kts 180°
2026-05-04 12:34 48.67974 -1.74920 28998 ft 401 kts 180°
2026-05-04 12:34 48.62398 -1.74833 28998 ft 401 kts 180°
2026-05-04 12:35 48.56862 -1.74756 28998 ft 400 kts 180°
2026-05-04 12:35 48.51293 -1.74705 28996 ft 400 kts 180°
2026-05-04 12:36 48.45720 -1.74651 28995 ft 400 kts 180°
2026-05-04 12:36 48.42946 -1.74620 28821 ft 395 kts 180°
2026-05-04 12:36 48.40223 -1.74586 28553 ft 387 kts 180°
2026-05-04 12:36 48.37542 -1.74550 28134 ft 383 kts 180°
2026-05-04 12:37 48.34892 -1.74510 27712 ft 379 kts 180°
2026-05-04 12:37 48.32261 -1.74474 27284 ft 376 kts 180°
2026-05-04 12:37 48.29661 -1.74438 26857 ft 373 kts 180°
2026-05-04 12:37 48.27077 -1.74404 26407 ft 370 kts 180°
2026-05-04 12:38 48.24509 -1.74372 25987 ft 367 kts 180°
2026-05-04 12:38 48.21965 -1.74341 25534 ft 365 kts 180°
2026-05-04 12:38 48.19431 -1.74310 25088 ft 363 kts 180°
2026-05-04 12:38 48.16916 -1.74283 24625 ft 361 kts 180°
2026-05-04 12:39 48.14407 -1.74257 24165 ft 359 kts 180°
2026-05-04 12:39 48.11912 -1.74229 23712 ft 357 kts 180°
2026-05-04 12:39 48.09433 -1.74200 23244 ft 356 kts 180°
2026-05-04 12:39 48.06972 -1.74404 22780 ft 354 kts 190°
2026-05-04 12:40 48.04597 -1.75353 22310 ft 353 kts 200°
2026-05-04 12:40 48.02284 -1.76566 21839 ft 352 kts 199°
2026-05-04 12:40 47.99975 -1.77759 21378 ft 351 kts 199°
2026-05-04 12:40 47.97664 -1.78942 20915 ft 351 kts 199°
2026-05-04 12:41 47.95388 -1.80103 20454 ft 350 kts 199°
2026-05-04 12:41 47.93083 -1.81280 19991 ft 349 kts 199°
2026-05-04 12:41 47.90787 -1.82455 19532 ft 349 kts 199°
2026-05-04 12:41 47.88499 -1.83622 19063 ft 348 kts 199°
2026-05-04 12:42 47.86211 -1.84791 18599 ft 347 kts 199°
2026-05-04 12:42 47.83929 -1.85957 18141 ft 346 kts 199°
2026-05-04 12:42 47.81655 -1.87118 17682 ft 345 kts 199°
2026-05-04 12:42 47.79392 -1.88272 17221 ft 344 kts 199°
2026-05-04 12:43 47.77126 -1.89426 16778 ft 343 kts 199°
2026-05-04 12:43 47.74874 -1.90571 16342 ft 342 kts 199°
2026-05-04 12:43 47.72630 -1.91713 15909 ft 341 kts 199°
2026-05-04 12:43 47.70397 -1.92848 15509 ft 339 kts 199°
2026-05-04 12:44 47.68178 -1.93978 15121 ft 336 kts 199°
2026-05-04 12:44 47.65943 -1.94928 14742 ft 333 kts 189°
2026-05-04 12:44 47.63627 -1.94964 14333 ft 332 kts 172°
2026-05-04 12:44 47.61419 -1.93997 13913 ft 331 kts 155°
2026-05-04 12:45 47.59357 -1.92483 13478 ft 331 kts 154°
2026-05-04 12:45 47.57308 -1.90982 13060 ft 330 kts 154°
2026-05-04 12:45 47.55293 -1.89514 12759 ft 324 kts 154°
2026-05-04 12:45 47.53273 -1.88048 12359 ft 323 kts 154°
2026-05-04 12:46 47.51259 -1.86590 11946 ft 322 kts 154°
2026-05-04 12:46 47.49250 -1.85137 11547 ft 320 kts 154°
2026-05-04 12:46 47.47257 -1.83697 11156 ft 318 kts 154°
2026-05-04 12:46 47.45273 -1.82262 10757 ft 316 kts 154°
2026-05-04 12:47 47.43305 -1.80838 10376 ft 314 kts 154°
2026-05-04 12:47 47.41350 -1.79424 9989 ft 312 kts 154°
2026-05-04 12:47 47.39433 -1.78045 9778 ft 299 kts 154°
2026-05-04 12:47 47.37594 -1.76725 9312 ft 289 kts 154°
2026-05-04 12:48 47.35801 -1.75438 9157 ft 287 kts 154°
2026-05-04 12:48 47.34008 -1.74149 9031 ft 286 kts 154°
2026-05-04 12:48 47.32221 -1.72863 8907 ft 286 kts 154°
2026-05-04 12:48 47.30438 -1.71577 8781 ft 285 kts 154°
2026-05-04 12:49 47.28655 -1.70294 8661 ft 285 kts 154°
2026-05-04 12:49 47.26875 -1.69013 8598 ft 284 kts 154°
2026-05-04 12:49 47.25099 -1.67738 8486 ft 284 kts 154°
2026-05-04 12:49 47.23322 -1.66464 8340 ft 283 kts 154°
2026-05-04 12:50 47.21553 -1.65198 8175 ft 283 kts 154°
2026-05-04 12:50 47.19785 -1.63937 8027 ft 282 kts 154°
2026-05-04 12:50 47.17946 -1.63003 7839 ft 279 kts 175°
2026-05-04 12:50 47.16035 -1.63315 7677 ft 278 kts 199°
2026-05-04 12:51 47.14357 -1.64677 7514 ft 277 kts 220°
2026-05-04 12:51 47.13083 -1.66735 7368 ft 276 kts 232°
2026-05-04 12:51 47.11878 -1.68930 7203 ft 276 kts 231°
2026-05-04 12:51 47.10669 -1.71111 7041 ft 275 kts 231°
2026-05-04 12:52 47.09445 -1.73310 6524 ft 282 kts 231°
2026-05-04 12:52 47.08213 -1.75519 6201 ft 277 kts 231°
2026-05-04 12:52 47.06998 -1.77704 5824 ft 275 kts 231°
2026-05-04 12:52 47.05775 -1.79899 5151 ft 283 kts 231°
2026-05-04 12:53 47.04530 -1.82129 4825 ft 278 kts 231°
2026-05-04 12:53 47.03331 -1.84279 4665 ft 266 kts 231°
2026-05-04 12:53 47.02186 -1.86331 4558 ft 254 kts 231°
2026-05-04 12:53 47.00931 -1.88091 4230 ft 251 kts 207°
2026-05-04 12:54 46.99255 -1.88510 3887 ft 247 kts 169°
2026-05-04 12:54 46.97785 -1.87336 3616 ft 242 kts 133°
2026-05-04 12:54 46.96813 -1.85355 3348 ft 238 kts 121°
2026-05-04 12:54 46.95976 -1.83291 3131 ft 232 kts 121°
2026-05-04 12:55 46.95160 -1.81307 3034 ft 223 kts 121°
2026-05-04 12:55 46.94462 -1.79363 3034 ft 210 kts 104°
2026-05-04 12:55 46.94551 -1.77322 3037 ft 202 kts 63°
2026-05-04 12:55 46.95490 -1.75882 3041 ft 198 kts 23°
2026-05-04 12:56 46.96776 -1.75214 3053 ft 192 kts 20°
2026-05-04 12:56 46.97978 -1.74437 3056 ft 191 kts 26°
2026-05-04 12:56 46.99148 -1.73533 3046 ft 190 kts 27°
2026-05-04 12:56 47.00323 -1.72600 3041 ft 189 kts 27°
2026-05-04 12:57 47.01469 -1.71696 3041 ft 189 kts 27°
2026-05-04 12:57 47.02614 -1.70803 2946 ft 184 kts 27°
2026-05-04 12:57 47.03754 -1.69906 2500 ft 186 kts 28°
2026-05-04 12:57 47.04860 -1.69032 2170 ft 174 kts 27°
2026-05-04 12:58 47.05902 -1.68232 1924 ft 164 kts 27°
2026-05-04 12:58 47.06886 -1.67482 1716 ft 153 kts 27°
2026-05-04 12:58 47.07806 -1.66783 1497 ft 146 kts 27°
2026-05-04 12:58 47.08695 -1.66107 1274 ft 143 kts 27°
2026-05-04 12:59 47.09574 -1.65441 1076 ft 141 kts 26°
2026-05-04 12:59 47.10440 -1.64784 936 ft 141 kts 26°
2026-05-04 12:59 47.11315 -1.64127 735 ft 141 kts 26°
2026-05-04 12:59 47.12181 -1.63466 533 ft 140 kts 27°
2026-05-04 13:00 47.13042 -1.62807 363 ft 140 kts 26°
2026-05-04 13:00 47.13902 -1.62152 181 ft 139 kts 27°
2026-05-04 13:00 47.14739 -1.61516 93 ft 123 kts 27°
2026-05-04 13:00 47.15350 -1.61048 89 ft 75 kts 27°
2026-05-04 13:01 47.15667 -1.60809 87 ft 35 kts 27°
2026-05-04 13:01 47.15826 -1.60669 85 ft 15 kts 52°
2026-05-04 13:01 47.15821 -1.60546 90 ft 8 kts 125°
2026-05-04 13:01 47.15794 -1.60479 91 ft 11 kts 101°
2026-05-04 13:02 47.15842 -1.60405 91 ft 9 kts 26°
2026-05-04 13:02 47.15898 -1.60362 92 ft 9 kts 27°
2026-05-04 13:02 47.15957 -1.60317 90 ft 8 kts 27°
2026-05-04 13:02 47.15959 -1.60286 91 ft 5 kts 109°
2026-05-04 13:03 47.15943 -1.60242 93 ft 4 kts 118°
2026-05-04 13:03 47.15936 -1.60223 91 ft 0 kts 116°